GPS BIII-9 (PRN 20)

Last updated on Sat Feb 07 2026 00:03:19 GMT+0000 (Coordinated Universal Time)

1 67588U 26017A 26037.57048658 -.00000033 00000+0 00000+0 0 9996 2 67588 55.0007 93.9975 0000865 80.8749 279.2003 2.00561517428992
UTC large
Height (km)
Speed (km/s)
/
Latitude / Longitude
Inclination (degrees)
Orbital Period (minutes)
Azimuth
Elevation
Range (km)
Doppler Factor

Next 0 passes for location: London (51.5072 / 0.1276)

Sorry there are no passes over London.
GPS BIII-9 (PRN 20)